Погода во 2-м Моховом

Россия / Тверская область     56°34′37″N   36°40′29″E
темп.,
°C
ветер,
м/с
пор.,
м/с
влажн.,
%
обл.,
%
осадки,
мм/ч
давл.,
гПа
погр.,
м
12 апреля, пн
пн1200:00+8ю25745 0.0 103289
03:00+7ю26780 0.0 103393
06:00+5ююв26800 0.0 1034116
09:00+11юв37593 0.0 1034426
12:00+14вюв5748100 0.0 10321004
15:00+15вюв5844100 0.0 10301147
18:00+12вюв5956100 0.0 1029837
21:00+10юв41072100 0.0 1029553
13 апреля, вт
вт1300:00+7вюв2587100 0.0 1028133
03:00+6вюв279697 0.0 1027176
06:00+6юв2696100 0.0 1025150
09:00+11ююв3872100 0.0 1025381
12:00+16ю4857100 0.0 1024663
15:00+18ю4750100 0.0 10231085
18:00+16ю3855100 0.0 1022316
21:00+11ююв3970100 0.0 1023163
14 апреля, ср
ср1400:00+10ююв3107447 0.0 1022163
03:00+9ююв3117694 0.0 1021198
06:00+8ю31176100 0.0 1021209
09:00+14ю4760100 0.0 1021306
12:00+18ююв4646100 0.0 1020863
15:00+20ю473727 0.0 10181899
18:00+17ю2450100 0.0 101786
21:00+12ю2264100 0.0 101821
15 апреля, чт
чт1500:00+10ю2268100 0.0 101813
03:00+9ююв1171100 0.0 101710
06:00+8в1174100 0.0 101710
09:00+11всв2263100 0.0 1017217
12:00+14всв2253100 0.0 1017643
15:00+16ссв2147100 0.0 10161397
18:00+13ссв466899 0.1 1016598
21:00+8ссв5108897 1.4 1018390
16 апреля, пт
пт1600:00+5ссв4108999 0.3 1019427
03:00+5ссв41091100 0.6 1020503
06:00+4ссв51292100 0.4 1021682
09:00+4св61284100 0.6 1023816
12:00+8св71152100 0.0 10241340
15:00+10св710397 0.0 10251732
18:00+8св611420 0.0 10271647
21:00+4св612500 0.0 1029993